Change the Weather History Date:

Thursday, October 18, 2012

  Actual Average (KGGG) Record (KGGG)
Temperature  
Mean Temperature 60 °F 65 °F  
Max Temperature 73 °F 78 °F 93 °F (1934)
Min Temperature 48 °F 53 °F 36 °F (1948)
Degree Days  
Heating Degree Days 4 3  
Month to date heating degree days 29  
Since 1 July heating degree days 35  
Cooling Degree Days 0 3  
Month to date cooling degree days 81  
Year to date cooling degree days 2360  
Growing Degree Days 10 (Base 50)    
Moisture  
Dew Point 40 °F    
Average Humidity 47    
Maximum Humidity 93    
Minimum Humidity 20    
Precipitation  
Precipitation 0.00 in 0.17 in 2.30 in (1916)
Month to date precipitation 2.73  
Year to date precipitation 36.72  
Snow  
Snow 0.00 in - - ()
Month to date snowfall  
Since 1 July snowfall  
Since 1 September snowfall  
Snow Depth -    
Sea Level Pressure  
Sea Level Pressure 29.93 in    
Wind  
Wind Speed 7 mph (NW)    
Max Wind Speed 18 mph    
Max Gust Speed 24 mph    
Visibility 10 miles    
Events      
T = Trace of Precipitation, MM = Missing Value Source: NWS Daily Summary

Daily Weather History Graph

Daily Weather History Graph

Search for Another Location

Airport or City:

Trip Planner

Search our weather history database for the weather conditions in past years. The results will help you decide how hot, cold, wet, or windy it might be!

Date:

Astronomy

Oct. 18, 2012 Rise Set
Actual Time 7:26 AM CDT 6:42 PM CDT
Civil Twilight 7:01 AM CDT 7:07 PM CDT
Nautical Twilight 6:33 AM CDT 7:36 PM CDT
Astronomical Twilight 6:04 AM CDT 8:04 PM CDT
Moon 10:59 AM CDT (10/18) 9:28 PM CDT (10/18)
Length of Visible Light 12h 05m
Length of Day
11h 15m
Waxing Crescent, 14% of the Moon is Illuminated
Oct 18
Waxing Crescent
Oct 21
First Quarter
Oct 29
Full
Nov 6
Last Quarter
Nov 13
New

Hourly Weather History & Observations

Time (CDT) Temp. Dew Point Humidity Pressure Visibility Wind Dir Wind Speed Gust Speed Precip Events Conditions
12:15 AM 64.4 °F 51.8 °F 64% 29.79 in 10.0 mi NW 11.5 mph - N/A   Clear
12:35 AM 62.6 °F 51.8 °F 68% 29.79 in 10.0 mi NW 8.1 mph - N/A   Clear
12:55 AM 64.4 °F 51.8 °F 64% 29.81 in 10.0 mi NW 5.8 mph - N/A   Clear
1:15 AM 60.8 °F 51.8 °F 72% 29.81 in 10.0 mi NW 6.9 mph - N/A   Clear
1:35 AM 60.8 °F 51.8 °F 72% 29.81 in 10.0 mi NW 9.2 mph - N/A   Clear
1:55 AM 64.4 °F 48.2 °F 56% 29.82 in 10.0 mi NW 16.1 mph 20.7 mph N/A   Clear
2:15 AM 64.4 °F 46.4 °F 52% 29.83 in 10.0 mi NNW 16.1 mph 19.6 mph N/A   Clear
2:35 AM 64.4 °F 42.8 °F 45% 29.83 in 10.0 mi NNW 18.4 mph 24.2 mph N/A   Clear
2:55 AM 62.6 °F 42.8 °F 48% 29.84 in 10.0 mi North 11.5 mph 19.6 mph N/A   Clear
3:15 AM 62.6 °F 42.8 °F 48% 29.84 in 10.0 mi North 10.4 mph 17.3 mph N/A   Clear
3:35 AM 60.8 °F 42.8 °F 52% 29.85 in 10.0 mi North 5.8 mph - N/A   Clear
3:55 AM 60.8 °F 42.8 °F 52% 29.85 in 10.0 mi North 3.5 mph - N/A   Clear
4:15 AM 60.8 °F 42.8 °F 52% 29.85 in 10.0 mi North 3.5 mph - N/A   Clear
4:35 AM 59.0 °F 42.8 °F 55% 29.87 in 10.0 mi North 4.6 mph - N/A   Clear
4:55 AM 59.0 °F 42.8 °F 55% 29.87 in 10.0 mi NNW 3.5 mph - N/A   Clear
5:15 AM 57.2 °F 42.8 °F 59% 29.88 in 10.0 mi North 4.6 mph - N/A   Clear
5:35 AM 55.4 °F 42.8 °F 63% 29.89 in 10.0 mi NNW 3.5 mph - N/A   Clear
5:55 AM 55.4 °F 42.8 °F 63% 29.90 in 10.0 mi NNW 4.6 mph - N/A   Clear
6:35 AM 53.6 °F 42.8 °F 67% 29.91 in 10.0 mi Calm Calm - N/A   Clear
6:55 AM 50.0 °F 44.6 °F 82% 29.92 in 10.0 mi Calm Calm - N/A   Clear
7:15 AM 50.0 °F 44.6 °F 82% 29.93 in 10.0 mi Calm Calm - N/A   Clear
7:35 AM 50.0 °F 44.6 °F 82% 29.94 in 10.0 mi Calm Calm - N/A   Clear
7:55 AM 50.0 °F 44.6 °F 82% 29.95 in 10.0 mi Calm Calm - N/A   Clear
8:15 AM 48.2 °F 46.4 °F 93% 29.95 in 10.0 mi Calm Calm - N/A   Clear
8:35 AM 51.8 °F 48.2 °F 88% 29.96 in 10.0 mi Calm Calm - N/A   Clear
8:55 AM 53.6 °F 50.0 °F 88% 29.97 in 10.0 mi Calm Calm - N/A   Clear
9:15 AM 59.0 °F 44.6 °F 59% 29.98 in 10.0 mi WNW 4.6 mph - N/A   Clear
9:35 AM 59.0 °F 46.4 °F 63% 29.99 in 10.0 mi WNW 3.5 mph - N/A   Clear
9:55 AM 62.6 °F 46.4 °F 55% 29.99 in 10.0 mi WNW 4.6 mph - N/A   Clear
10:15 AM 64.4 °F 44.6 °F 49% 30.00 in 10.0 mi NW 4.6 mph - N/A   Clear
10:35 AM 66.2 °F 44.6 °F 46% 30.00 in 10.0 mi West 3.5 mph - N/A   Clear
10:55 AM 68.0 °F 41.0 °F 37% 30.00 in 10.0 mi Calm Calm - N/A   Clear
11:15 AM 69.8 °F 39.2 °F 33% 30.00 in 10.0 mi NNW 5.8 mph - N/A   Clear
11:35 AM 69.8 °F 33.8 °F 27% 30.00 in 10.0 mi NW 11.5 mph 17.3 mph N/A   Clear
11:55 AM 71.6 °F 33.8 °F 25% 30.00 in 10.0 mi NNW 10.4 mph - N/A   Clear
12:15 PM 71.6 °F 32.0 °F 23% 30.00 in 10.0 mi North 12.7 mph 20.7 mph N/A   Clear
12:35 PM 71.6 °F 32.0 °F 23% 30.00 in 10.0 mi NW 11.5 mph 20.7 mph N/A   Clear
12:55 PM 71.6 °F 30.2 °F 22% 29.99 in 10.0 mi NW 11.5 mph 17.3 mph N/A   Clear
1:15 PM 71.6 °F 28.4 °F 20% 29.99 in 10.0 mi WNW 6.9 mph 17.3 mph N/A   Clear
1:35 PM 71.6 °F 30.2 °F 22% 29.98 in 10.0 mi NW 11.5 mph - N/A   Clear
1:55 PM 73.4 °F 32.0 °F 22% 29.96 in 10.0 mi WNW 11.5 mph 17.3 mph N/A   Clear
2:15 PM 71.6 °F 30.2 °F 22% 29.95 in 10.0 mi WNW 12.7 mph 17.3 mph N/A   Clear
2:35 PM 71.6 °F 32.0 °F 23% 29.95 in 10.0 mi WNW 9.2 mph - N/A   Clear
2:55 PM 73.4 °F 32.0 °F 22% 29.94 in 10.0 mi WNW 12.7 mph - N/A   Clear
3:15 PM 73.4 °F 32.0 °F 22% 29.94 in 10.0 mi WNW 9.2 mph - N/A   Clear
3:35 PM 73.4 °F 32.0 °F 22% 29.94 in 10.0 mi WNW 11.5 mph - N/A   Clear
3:55 PM 73.4 °F 32.0 °F 22% 29.94 in 10.0 mi West 5.8 mph 10.4 mph N/A   Clear
4:15 PM 73.4 °F 32.0 °F 22% 29.94 in 10.0 mi NW 10.4 mph - N/A   Clear
4:35 PM 73.4 °F 32.0 °F 22% 29.93 in 10.0 mi West 9.2 mph - N/A   Clear
4:55 PM 73.4 °F 32.0 °F 22% 29.93 in 10.0 mi WNW 12.7 mph - N/A   Clear
5:15 PM 71.6 °F 32.0 °F 23% 29.93 in 10.0 mi WNW 10.4 mph 16.1 mph N/A   Clear
5:35 PM 71.6 °F 32.0 °F 23% 29.93 in 10.0 mi WNW 9.2 mph - N/A   Clear
5:55 PM 71.6 °F 32.0 °F 23% 29.93 in 10.0 mi WNW 6.9 mph - N/A   Clear
6:15 PM 69.8 °F 33.8 °F 27% 29.93 in 10.0 mi West 5.8 mph - N/A   Clear
6:35 PM 68.0 °F 33.8 °F 28% 29.93 in 10.0 mi WNW 4.6 mph - N/A   Clear
6:55 PM 66.2 °F 33.8 °F 30% 29.94 in 10.0 mi WNW 5.8 mph - N/A   Clear
7:15 PM 64.4 °F 33.8 °F 32% 29.95 in 10.0 mi WNW 4.6 mph - N/A   Clear
7:35 PM 64.4 °F 33.8 °F 32% 29.95 in 10.0 mi West 4.6 mph - N/A   Clear
7:55 PM 62.6 °F 33.8 °F 34% 29.95 in 10.0 mi West 4.6 mph - N/A   Clear
8:15 PM 62.6 °F 33.8 °F 34% 29.95 in 10.0 mi Calm Calm - N/A   Clear
8:35 PM 57.2 °F 41.0 °F 55% 29.96 in 10.0 mi Calm Calm - N/A   Clear
8:55 PM 55.4 °F 41.0 °F 58% 29.96 in 10.0 mi Calm Calm - N/A   Clear
9:15 PM 59.0 °F 39.2 °F 48% 29.95 in 10.0 mi SW 3.5 mph - N/A   Clear
9:35 PM 55.4 °F 42.8 °F 63% 29.96 in 10.0 mi WSW 3.5 mph - N/A   Clear
9:55 PM 53.6 °F 42.8 °F 67% 29.96 in 10.0 mi Calm Calm - N/A   Clear
10:15 PM 55.4 °F 41.0 °F 58% 29.97 in 10.0 mi Calm Calm - N/A   Clear
10:35 PM 53.6 °F 42.8 °F 67% 29.97 in 10.0 mi WSW 4.6 mph - N/A   Clear
10:55 PM 53.6 °F 42.8 °F 67% 29.97 in 10.0 mi SW 4.6 mph - N/A   Clear